This demonstration page uses our WeatherBlox Daily Observations layout. Learn more.

Hourly Observations for June 2, 2020

Temp ( °F °C ) Dew Point ( °F °C ) Humidity (%) Winds ( mph kmh ) Pressure ( in mb ) Visibility ( mi km ) Precip ( " mm )
12:15 am 00:15 Clear 74 23.2 59 15 60 60 S 12 19 29.85 1011 10 16.0934 0 0
12:35 am 00:35 Clear 73 23 59 15 61 61 SSW 13 20 29.85 1011 10 16.0934 0 0
12:55 am 00:55 Clear 73 22.6 59 15.2 63 63 SSW 10 17 29.86 1011 10 16.0934 0 0
1:15 am 01:15 Clear 72 22.2 59 15.2 65 65 S 10 17 29.85 1011 10 16.0934 0 0
1:35 am 01:35 Clear 72 22.2 59 15.2 65 65 S 13 20 29.84 1010 10 16.0934 0 0
1:55 am 01:55 Clear 72 22.2 59 15.2 65 65 S 12 19 29.84 1010 10 16.0934 0 0
2:15 am 02:15 Clear 72 22 59 15.2 65 65 SSW 12 19 29.84 1011 10 16.0934 0 0
2:35 am 02:35 Clear 71 21.8 59 15.1 66 66 SSW 12 19 29.84 1011 10 16.0934 0 0
2:55 am 02:55 Clear 71 21.7 59 15 66 66 S 13 20 29.83 1010 10 16.0934 0 0
3:15 am 03:15 Clear 71 21.5 59 15 67 67 S 12 19 29.84 1010 10 16.0934 0 0
3:35 am 03:35 Clear 70 21.2 59 15 68 68 S 13 20 29.83 1010 10 16.0934 0 0
3:55 am 03:55 Clear 70 21.1 59 15 68 68 SSW 13 20 29.83 1010 10 16.0934 0 0
4:15 am 04:15 Clear 69 20.6 59 15 70 70 S 12 19 29.83 1010 10 16.0934 0 0
4:35 am 04:35 Clear 69 20.5 59 15 71 71 S 14 22 29.82 1010 10 16.0934 0 0
4:55 am 04:55 Clear 68 20.2 59 14.9 72 72 S 14 22 29.83 1010 10 16.0934 0 0
5:15 am 05:15 Clear 68 20 59 15 73 73 S 14 22 29.82 1010 10 16.0934 0 0
5:35 am 05:35 Clear 68 20 59 15 73 73 S 13 20 29.82 1010 10 16.0934 0 0
5:55 am 05:55 Clear 67 19.5 59 15 75 75 S 10 17 29.82 1010 10 16.0934 0 0
6:15 am 06:15 Sunny 67 19.2 59 15 77 77 S 9 15 29.83 1010 10 16.0934 0 0
6:35 am 06:35 Sunny 66 18.8 59 15.1 79 79 SSE 5 7 29.85 1011 10 16.0934 0 0
6:55 am 06:55 Sunny 65 18.6 60 15.3 81 81 S 8 13 29.85 1011 10 16.0934 0 0
7:15 am 07:15 Sunny 67 19.3 60 15.5 79 79 S 9 15 29.84 1011 10 16.0934 0 0
7:35 am 07:35 Sunny 68 20 60 15.7 76 76 S 10 17 29.84 1010 10 16.0934 0 0
7:55 am 07:55 Sunny 70 21.1 60 15.8 72 72 S 10 17 29.83 1010 10 16.0934 0 0
8:15 am 08:15 Sunny 71 21.5 60 15.8 70 70 SSW 16 26 29.84 1010 10 16.0934 0 0
8:35 am 08:35 Sunny 72 22 61 16 69 69 SSW 16 26 29.83 1010 10 16.0934 0 0
8:55 am 08:55 Sunny 73 22.6 61 16 66 66 SW 15 24 29.83 1010 10 16.0934 0 0
9:15 am 09:15 Sunny 73 22.8 61 16 66 66 SW 10 17 29.83 1010 10 16.0934 0 0
9:35 am 09:35 Sunny 74 23.3 61 16.1 64 64 SW 13 20 29.82 1010 10 16.0934 0 0
9:55 am 09:55 Sunny 77 24.8 61 16.3 59 59 SW 13 20 29.81 1009 10 16.0934 0 0
10:15 am 10:15 Sunny 79 26.2 62 16.4 55 55 SW 10 17 29.8 1009 10 16.0934 0 0
10:35 am 10:35 Sunny 80 26.5 61 16.1 53 53 SW 10 17 29.8 1009 10 16.0934 0 0
10:55 am 10:55 Sunny 81 27.2 60 15.3 48 48 SW 13 20 29.79 1009 10 16.0934 0 0
11:15 am 11:15 Sunny 81 27 60 15.4 49 49 SSW 14 22 29.79 1009 10 16.0934 0 0
11:35 am 11:35 Sunny 82 27.5 62 16.4 51 51 S 13 20 29.79 1009 10 16.0934 0 0
11:55 am 11:55 Sunny 81 27.2 62 16.5 52 52 SSW 13 20 29.79 1009 10 16.0934 0 0
12:15 pm 12:15 Sunny 82 27.6 60 15.6 48 48 S 9 15 29.79 1009 10 16.0934 0 0
12:35 pm 12:35 Sunny 85 29.3 60 15.5 43 43 SSW 13 20 29.77 1008 10 16.0934 0 0
12:55 pm 12:55 Sunny 87 30.7 60 15.3 39 39 S 12 19 29.76 1008 10 16.0934 0 0
1:15 pm 13:15 Sunny 88 31.3 60 15.6 39 39 SSW 13 20 29.75 1007 10 16.0934 0 0
1:35 pm 13:35 Sunny 87 30.8 59 14.8 38 38 SSW 14 22 29.75 1008 10 16.0934 0 0
1:55 pm 13:55 Sunny 88 30.9 60 15.8 40 40 SW 9 15 29.75 1007 10 16.0934 0 0
2:15 pm 14:15 Sunny 88 31.1 60 15.6 39 39 SSW 7 11 29.75 1007 10 16.0934 0 0
2:35 pm 14:35 Sunny 89 31.5 60 15.5 38 38 S 14 22 29.74 1007 10 16.0934 0 0
2:55 pm 14:55 Sunny 90 32.2 59 14.9 35 35 S 12 19 29.73 1007 10 16.0934 0 0
3:15 pm 15:15 Sunny 92 33.4 59 14.8 33 33 S 14 22 29.72 1007 10 16.0934 0 0
3:35 pm 15:35 Sunny 92 33.3 59 14.9 33 33 S 15 24 29.71 1006 10 16.0934 0 0
3:55 pm 15:55 Sunny 92 33.5 59 15.1 33 33 S 10 17 29.71 1006 10 16.0934 0 0
4:15 pm 16:15 Sunny 93 33.9 60 15.3 33 33 S 12 19 29.71 1006 10 16.0934 0 0
4:35 pm 16:35 Sunny 94 34.2 59 15.1 32 32 SSW 10 17 29.7 1006 10 16.0934 0 0
4:55 pm 16:55 Sunny 94 34.5 59 14.8 31 31 SSW 14 22 29.69 1006 10 16.0934 0 0
5:15 pm 17:15 Sunny 94 34.5 58 14.5 30 30 S 10 17 29.68 1005 10 16.0934 0 0
5:35 pm 17:35 Sunny 94 34.6 56 13.6 28 28 S 12 19 29.68 1005 10 16.0934 0 0
5:55 pm 17:55 Sunny 94 34.4 56 13.3 28 28 S 8 13 29.67 1005 10 16.0934 0 0
6:15 pm 18:15 Sunny 94 34.2 56 13.1 28 28 S 10 17 29.68 1005 10 16.0934 0 0
6:35 pm 18:35 Sunny 93 33.8 56 13.1 28 28 S 9 15 29.68 1005 10 16.0934 0 0
6:55 pm 18:55 Sunny 91 33 57 13.7 31 31 S 10 17 29.7 1006 10 16.0934 0 0
7:15 pm 19:15 Sunny 90 32.4 57 14 33 33 S 7 11 29.71 1006 10 16.0934 0 0
7:35 pm 19:35 Sunny 89 31.5 57 14.1 35 35 S 6 9 29.73 1007 10 16.0934 0 0
7:55 pm 19:55 Sunny 88 31.1 58 14.2 36 36 W 3 6 29.74 1007 10 16.0934 0 0
8:15 pm 20:15 Sunny 87 30.4 65 18.2 48 48 N 15 24 29.76 1008 10 16.0934 0 0
8:35 pm 20:35 Sunny 85 29.2 67 19.2 55 55 N 18 30 29.78 1009 10 16.0934 0 0
8:55 pm 20:55 Sunny 83 28.4 66 19.1 57 57 N 12 19 29.79 1009 10 16.0934 0 0
9:15 pm 21:15 Clear 82 27.6 66 19.1 60 60 NNE 13 20 29.81 1009 10 16.0934 0 0
9:35 pm 21:35 Clear 81 27 66 19.1 62 62 NNE 8 13 29.81 1010 10 16.0934 0 0
9:55 pm 21:55 Mostly Cloudy 80 26.5 66 19.1 64 64 NNE 9 15 29.82 1010 10 16.0934 0 0
10:15 pm 22:15 Mostly Cloudy with Thunderstorms 79 26.1 66 18.9 65 65 WNW 16 26 29.87 1011 10 16.0934 0 0
10:35 pm 22:35 Cloudy with Heavy Thunderstorms 73 22.7 65 18.6 78 78 NW 21 33 29.91 1013 3 4.82802 0.05 1.27
10:55 pm 22:55 Cloudy with Heavy Thunderstorms 68 20 65 18.1 89 89 N 28 44 29.94 1014 1 1.60934 0.46 11.684
11:15 pm 23:15 Cloudy with Thunderstorms 67 19.7 63 17.2 86 86 NNE 17 28 29.92 1013 5 8.0467 0.08 2.032
11:35 pm 23:35 Mostly Cloudy with Light Thunderstorms 69 20.7 65 18.6 88 88 WSW 14 22 29.95 1014 10 16.0934 0.11 2.794
11:55 pm 23:55 Mostly Cloudy with Thunderstorms 70 21 65 18.1 84 84 W 3 6 29.95 1014 10 16.0934 0.11 2.794

Powered by AerisWeather